This is the latest recevied weather packets stored in our database for station/object K7AEL. If no packets are shown the sender has not sent any weather packets the latest 1 day(s).
| Time | Temp. | Humidity | Pressure | Rain* | Wind** | Luminosity | Snow |
|---|---|---|---|---|---|---|---|
| 1778093098 | 24.44° C | 29% | 1017.2 hPa | 0 mm | - | 753 W/m² | - |
| 1778092490 | 23.89° C | 30% | 1017.2 hPa | 0 mm | - | 745 W/m² | - |
| 1778090060 | 22.78° C | 33% | 1017.6 hPa | 0 mm | - | 705 W/m² | - |
| 1778089449 | 23.33° C | 32% | 1017.5 hPa | 0 mm | - | 689 W/m² | - |
| 1778088843 | 22.78° C | 33% | 1017.6 hPa | 0 mm | - | 672 W/m² | - |
| 1778088540 | 22.22° C | 35% | 1017.9 hPa | 0 mm | - | 667 W/m² | - |
| 1778087630 | 21.11° C | 36% | 1017.6 hPa | 0 mm | - | 633 W/m² | - |
| 1778087328 | 21.67° C | 36% | 1017.6 hPa | 0 mm | - | 626 W/m² | - |
| 1778087024 | 21.67° C | 37% | 1017.8 hPa | 0 mm | - | 613 W/m² | - |
| 1778086718 | 21.11° C | 37% | 1017.6 hPa | 0 mm | - | 606 W/m² | - |
| 1778085506 | 21.11° C | 38% | 1017.5 hPa | 0 mm | - | 557 W/m² | - |
| 1778083376 | 20.56° C | 40% | 1017.4 hPa | 0 mm | - | 461 W/m² | - |
| 1778083075 | 20.56° C | 40% | 1017.5 hPa | 0 mm | - | 446 W/m² | - |
| 1778082766 | 21.11° C | 40% | 1017.3 hPa | 0 mm | - | 431 W/m² | - |
| 1778081639 | 18.33° C | 47% | 1017.4 hPa | 0 mm | - | 369 W/m² | - |
| 1778081336 | 18.89° C | 45% | 1017.4 hPa | 0 mm | - | 360 W/m² | - |
| 1778080428 | 17.22° C | 52% | 1017.5 hPa | 0 mm | - | 311 W/m² | - |
| 1778079215 | 16.11° C | 54% | 1017.4 hPa | 0 mm | - | 36 W/m² | - |
| 1778078609 | 15.56° C | 54% | 1017.4 hPa | 0 mm | - | 35 W/m² | - |
| 1778078004 | 15.56° C | 55% | 1017.3 hPa | 0 mm | - | 33 W/m² | - |
| 1778077400 | 15° C | 56% | 1017.3 hPa | 0 mm | - | 32 W/m² | - |
| 1778076796 | 13.89° C | 60% | 1017.4 hPa | 0 mm | - | 31 W/m² | - |
| 1778076190 | 13.33° C | 65% | 1017.3 hPa | 0 mm | - | 29 W/m² | - |
| 1778073159 | 11.67° C | 74% | 1017 hPa | 0 mm | - | 18 W/m² | - |
| 1778072552 | 11.67° C | 75% | 1016.8 hPa | 0 mm | - | 15 W/m² | - |
* Rain latest hour (hover to see other rain measurements)
** Current wind speed in m/s (hover to see current wind gust speed)